SCP
1 1 2 2 2 2 1 1 1 1 1 1 0 0 0 0 0 0 0 0 0 0 0 0 0 0 0 0 0 0 0 0 0 0 0 0 0 1 0 0 0 0 0
1 1 2 2 2 2 2 1 1 1 1 1 1 0 0 0 0 0 0 1 0 0 0 0 0 0 0 0 0 0 0 0 0 0 0 0 0 1 1 0 0 0 0
1 1 2 2 2 2 2 2 1 1 1 1 1 1 0 0 0 0 1 1 0 0 0 0 0 0 0 0 0 0 0 0 0 0 0 0 0 1 1 1 1 1 1
1 1 1 1 2 2 2 2 1 1 1 1 1 1 1 0 0 0 1 1 0 0 0 0 0 0 0 0 0 0 0 0 0 0 0 0 0 1 1 1 1 1 1
1 1 1 1 2 2 2 2 1 1 1 1 1 1 1 1 0 1 1 1 0 0 0 0 1 1 0 0 0 0 0 0 0 0 0 0 1 1 1 1 1 1 1
1 1 1 1 2 2 2 2 1 1 1 1 1 1 1 1 1 1 1 1 1 0 1 1 1 1 1 0 0 0 0 0 0 0 0 1 1 1 1 1 1 1 1
1 1 1 1 2 2 2 2 1 1 1 1 1 1 1 1 1 1 1 1 1 1 1 1 1 1 1 1 1 1 0 0 0 0 0 0 1 1 1 1 1 1 1
1 1 1 1 2 2 2 2 1 1 1 1 1 1 1 1 1 1 1 1 1 1 1 1 1 1 1 1 1 1 0 0 0 0 0 1 1 1 1 1 1 1 1
1 1 1 1 1 2 2 1 1 1 1 1 1 1 1 1 1 1 1 1 1 1 1 1 1 1 1 1 1 1 0 0 0 0 0 0 0 1 1 1 1 1 1
1 1 1 1 1 1 1 1 1 1 1 1 1 0 0 1 1 1 1 1 1 1 1 1 1 1 1 1 1 0 0 0 0 0 0 0 0 1 1 1 1 1 1
1 1 1 1 1 1 1 1 1 1 1 1 1 0 0 0 0 0 0 1 1 1 1 1 1 0 1 1 1 0 0 0 0 1 0 0 0 1 1 1 1 1 1
1 1 1 1 1 1 1 1 1 1 1 1 1 1 0 0 1 0 0 0 1 1 1 1 1 0 0 0 0 0 0 0 0 0 0 0 0 1 1 1 1 0 0
1 1 1 1 1 1 1 1 1 1 1 1 1 1 1 1 1 1 1 1 1 1 1 1 1 1 0 0 0 0 0 0 0 0 0 0 0 1 1 1 1 1 0
1 1 1 1 1 1 1 1 1 1 1 1 1 1 1 1 1 1 1 1 0 0 1 1 1 1 0 0 0 0 0 0 0 0 0 0 0 1 1 2 2 1 0
1 1 1 1 1 1 1 1 0 0 1 1 1 1 1 1 1 1 1 0 0 0 0 0 1 0 0 0 0 0 0 0 0 0 0 0 0 0 1 1 2 1 1
0 1 1 1 1 1 1 1 1 1 1 1 1 1 1 1 1 0 0 0 0 0 0 0 0 0 0 0 0 0 0 0 0 0 0 0 0 0 1 1 2 2 1
0 0 1 1 1 1 1 1 1 1 0 1 1 1 1 1 0 0 0 0 0 0 0 0 0 0 0 0 0 0 0 0 0 0 0 0 0 0 0 1 1 2 2
0 0 1 1 1 1 1 1 1 0 0 0 1 1 1 1 0 0 0 0 0 0 0 0 0 0 0 0 0 0 0 0 0 0 0 0 0 0 0 1 1 1 2
0 0 1 1 1 1 1 1 1 0 0 0 1 1 1 1 0 0 0 0 0 0 0 0 0 0 0 0 0 0 0 0 0 0 0 0 0 0 0 0 0 1 1
0 0 1 1 1 1 1 1 0 0 0 0 1 1 1 1 0 0 0 0 0 0 0 0 0 0 0 0 0 0 0 0 0 0 0 0 0 0 0 0 0 0 0
0 0 1 1 1 1 1 0 0 0 0 0 1 1 1 0 0 0 0 0 0 0 0 0 0 0 0 0 0 0 0 0 0 0 0 0 0 0 0 0 0 0 0
0 0 0 1 1 1 0 0 0 0 0 0 0 1 1 0 0 0 0 0 0 0 0 0 0 0 0 0 0 0 0 0 0 0 0 0 0 0 0 0 0 0 0
0 0 0 0 1 1 1 0 0 0 0 0 0 0 0 0 0 0 0 0 0 0 0 0 0 0 0 0 0 0 0 0 0 0 0 0 0 0 0 0 0 0 0
0 0 0 0 0 1 1 1 0 0 0 0 0 0 0 0 0 0 0 0 0 0 0 0 0 0 0 0 0 0 0 0 0 0 0 0 0 0 0 0 0 0 0
0 0 0 0 0 0 0 0 0 0 0 0 0 0 0 0 0 0 0 0 0 0 0 0 0 0 0 0 0 0 0 0 0 0 0 0 0 0 0 0 0 0 0
0 0 0 0 0 0 0 0 0 0 0 0 0 0 0 0 0 0 0 0 0 0 0 0 0 0 0 0 0 0 0 0 0 0 0 0 0 0 0 0 0 0 0
Wind_Speed
3 4 3 4 7 8 8 8 8 7 8 7 7 7 7 8 8 8 8 8 9 9 9 9 10 10 10 10 11 10 10 10 10 10 10 10 10 10 10 9 7 7 10
4 4 5 4 7 8 8 8 7 6 6 6 6 6 7 7 7 8 8 8 8 9 9 9 9 10 10 10 10 10 10 10 9 9 8 8 10 10 10 9 9 7 9
4 5 6 5 7 8 8 8 7 7 6 6 6 6 7 7 7 8 8 8 8 8 8 9 9 9 9 9 9 9 9 9 9 7 5 5 7 9 9 9 8 8 8
4 5 5 6 7 7 7 7 7 7 6 6 6 6 6 7 7 7 7 7 7 7 8 8 8 8 8 8 8 8 9 9 8 5 3 5 5 8 9 8 8 7 7
4 5 5 5 6 7 7 7 7 7 6 6 6 6 6 6 6 6 6 6 6 6 7 7 7 7 7 8 8 8 8 8 6 3 4 4 5 7 7 7 7 7 7
4 4 6 5 6 7 7 6 7 6 6 6 5 5 5 5 5 6 6 6 6 6 6 6 6 6 6 7 7 7 7 6 3 3 4 4 4 6 6 6 7 6 6
4 4 5 5 6 6 6 6 6 5 5 5 5 5 5 5 5 5 5 5 5 5 5 5 5 5 5 5 6 6 6 5 3 3 3 3 4 5 5 5 5 6 5
4 4 4 5 5 5 5 5 5 5 5 5 5 4 5 5 5 5 5 5 5 4 5 5 4 4 4 4 5 5 5 3 2 2 2 2 5 4 4 4 5 5 5
3 3 3 4 4 4 4 4 4 4 4 4 4 4 5 4 5 5 4 4 4 4 4 4 4 4 3 3 4 4 4 3 2 1 2 2 4 4 4 4 4 4 4
3 3 3 3 4 4 4 4 4 4 4 4 4 5 4 4 4 4 3 4 4 4 4 4 3 3 3 3 3 3 3 2 1 1 1 2 3 3 3 3 4 4 4
3 3 3 3 3 3 3 3 4 4 4 3 4 4 2 2 2 2 3 3 3 3 3 3 3 3 2 2 3 3 2 1 1 1 1 3 3 4 4 4 4 4 4
4 4 3 4 3 3 2 2 2 2 2 2 2 2 1 1 1 1 3 2 2 3 2 3 2 1 1 0 1 0 1 1 1 1 1 3 3 4 4 5 5 4 5
5 4 3 3 3 3 2 2 1 1 2 2 2 2 1 1 1 1 1 1 1 1 1 1 0 0 1 1 1 1 2 2 1 1 1 4 4 5 5 5 5 5 5
5 5 4 4 3 3 2 2 1 1 1 2 2 2 2 1 1 1 1 0 0 0 1 1 1 1 1 1 1 1 2 2 2 2 2 4 5 6 6 6 6 5 5
5 5 5 4 4 3 3 2 2 2 2 2 2 2 2 2 1 1 1 0 0 0 0 1 1 1 1 1 1 2 2 2 3 3 1 2 4 5 6 6 6 6 6
6 6 5 5 5 4 3 2 2 2 2 2 2 3 3 2 2 1 1 1 1 1 1 1 1 1 1 1 2 2 3 3 3 3 3 2 3 4 5 6 6 6 6
6 6 5 5 5 5 4 4 2 2 2 2 2 3 3 2 2 2 1 1 1 1 1 1 1 1 1 2 2 3 3 3 3 3 3 3 2 3 4 5 6 6 7
6 6 5 4 5 5 4 4 3 3 3 3 2 3 3 3 3 2 2 2 1 2 2 2 1 1 2 2 2 2 3 3 4 4 3 3 3 3 3 4 6 7 7
7 6 5 6 5 5 4 3 3 3 3 3 3 3 4 4 4 3 2 2 2 2 2 2 2 2 2 2 3 3 3 3 3 3 4 4 4 3 3 3 4 6 7
6 5 5 5 5 4 3 3 2 3 3 3 3 3 4 4 4 4 3 3 3 2 2 2 2 2 2 2 2 3 3 3 3 3 4 3 3 3 4 4 3 3 5
5 5 5 6 5 4 3 3 3 3 3 3 3 3 4 4 4 4 3 3 3 3 3 3 2 2 2 1 2 3 3 3 3 3 3 3 3 3 4 3 3 3 3
5 5 5 6 5 5 4 3 2 2 2 2 2 3 4 4 4 4 4 3 3 3 3 3 3 2 2 1 2 3 3 3 2 2 2 3 3 3 3 3 3 4 4
4 5 4 5 5 5 4 3 2 2 2 2 3 2 3 4 4 4 5 4 4 4 4 4 4 3 2 2 2 3 3 3 3 2 3 3 3 3 3 3 4 4 5
4 4 4 4 4 4 4 4 5 4 3 3 2 2 2 3 4 4 5 5 5 4 4 4 4 4 3 3 2 3 4 3 3 3 2 3 4 4 4 4 4 4 5
2 3 3 3 3 4 4 4 4 3 3 2 2 2 2 2 3 3 4 4 5 4 5 5 5 5 4 4 3 2 3 4 5 5 5 4 4 4 4 5 5 4 5
1 2 2 3 3 3 3 3 4 4 3 2 3 3 2 2 2 3 4 4 4 4 5 5 5 5 4 4 4 4 3 3 4 4 6 6 6 5 5 5 5 4 4
Wind_Direction
151 144 127 120 115 110 107 103 107 108 107 107 107 104 103 100 97 93 86 83 80 79 79 78 76 75 74 72 69 67 63 61 59 57 57 58 60 61 61 55 46 57 54
147 150 132 123 119 112 108 104 103 110 110 108 109 107 105 102 99 96 89 87 83 81 79 78 77 77 75 73 70 67 63 60 56 55 56 65 60 57 57 53 45 49 48
141 146 142 124 120 115 111 108 105 106 110 110 108 110 107 103 100 98 93 88 84 82 81 81 79 78 77 75 71 68 64 60 54 48 43 59 62 56 52 50 49 52 50
139 146 141 120 122 118 114 110 106 103 105 106 103 106 108 104 102 100 96 91 86 83 83 82 80 78 77 76 72 68 64 58 51 36 50 51 54 55 48 45 46 47 47
138 145 133 122 124 123 118 115 110 106 103 103 102 101 106 105 103 101 96 91 88 86 84 82 79 78 77 76 71 67 62 57 46 39 52 47 47 51 45 42 41 40 38
139 144 133 123 125 125 125 120 115 111 107 106 105 102 102 104 101 99 96 92 89 86 85 83 79 78 75 73 71 66 58 49 30 43 45 41 42 46 39 38 36 34 32
143 144 138 123 124 126 127 125 119 116 113 108 102 102 101 98 96 96 94 91 87 83 84 85 80 81 77 74 70 66 56 30 21 37 35 40 39 31 26 28 28 25 24
145 144 143 128 122 126 129 128 123 117 110 103 95 96 98 97 95 93 92 90 87 84 79 78 75 77 78 73 67 60 48 15 10 26 31 35 34 15 15 18 17 18 18
145 148 154 160 154 135 126 123 119 114 106 97 93 87 83 86 89 84 83 88 89 85 79 73 68 64 70 67 61 52 36 359 323 15 10 17 23 0 3 8 4 0 360
154 161 160 167 171 166 152 123 116 112 105 98 93 87 78 83 89 82 87 83 84 83 79 71 66 61 55 55 51 43 15 295 326 346 344 29 6 343 344 348 345 343 343
175 179 178 173 175 169 164 140 137 123 111 116 114 103 117 132 126 114 76 67 73 77 77 68 58 53 41 63 52 24 308 300 336 330 343 14 339 329 329 330 328 326 327
192 191 191 185 176 174 165 166 167 163 156 157 149 145 157 148 120 112 94 74 68 66 77 67 51 55 332 28 76 309 300 323 301 315 5 351 323 319 316 314 314 314 309
200 191 193 187 176 177 174 182 180 174 176 169 169 172 177 173 159 146 126 110 101 102 72 72 116 323 324 334 317 320 327 316 309 308 350 340 313 305 305 304 304 305 304
209 201 196 192 184 184 184 185 192 193 195 190 189 194 196 196 190 174 171 127 49 356 4 354 333 334 310 297 293 296 299 294 298 301 344 344 312 300 297 298 300 302 306
217 210 203 198 195 191 190 195 198 210 225 205 199 203 210 210 201 199 188 183 226 277 308 308 299 310 297 289 287 292 297 298 292 290 295 341 312 298 296 298 300 302 306
223 215 204 203 204 198 200 205 209 213 226 223 209 206 210 219 209 204 212 223 238 233 269 283 290 279 281 281 280 285 285 286 284 285 285 301 320 309 301 300 304 307 308
228 217 204 207 205 205 207 212 215 214 225 228 219 208 205 211 208 206 221 225 241 249 251 249 275 262 269 273 272 275 275 275 274 276 281 284 290 305 303 298 298 300 304
228 215 201 203 202 206 207 213 215 216 223 226 222 210 207 210 208 207 217 231 229 223 227 235 248 265 263 273 278 280 277 271 266 267 270 273 280 281 290 303 302 300 300
221 210 200 200 200 202 207 214 216 218 224 223 222 213 208 211 210 212 215 222 224 225 226 233 248 268 270 277 287 288 280 269 265 262 263 266 270 275 280 289 296 303 302
215 206 202 200 200 198 200 205 210 222 223 220 219 219 213 212 211 213 214 214 219 220 221 223 243 265 271 283 287 284 280 271 260 259 263 263 264 271 277 286 281 284 295
203 199 201 202 195 187 191 197 206 223 216 216 219 221 221 215 209 212 216 209 215 223 229 225 232 252 264 285 280 284 276 256 249 262 266 270 274 283 287 291 297 298 293
197 198 201 203 196 194 201 201 215 217 217 226 225 223 224 215 208 209 211 211 211 217 219 220 217 237 246 245 266 285 283 254 228 250 261 271 276 278 279 287 292 293 294
200 202 204 203 198 194 195 189 187 194 205 213 227 228 229 223 213 210 211 214 214 215 217 217 216 223 234 239 255 264 275 285 314 250 254 260 275 279 281 285 286 286 289
206 201 203 199 193 189 186 194 201 208 220 230 238 238 240 229 219 212 216 218 217 219 221 218 222 227 224 237 242 252 271 288 280 287 256 260 276 274 277 279 277 280 281
193 193 194 188 185 183 191 202 205 215 232 233 236 235 233 224 218 217 224 225 222 222 225 220 220 221 222 232 232 232 243 257 256 267 280 284 278 268 269 269 271 273 276
160 179 180 181 187 190 196 207 211 216 222 228 232 238 239 231 225 222 221 226 229 227 226 223 224 222 224 231 235 232 232 237 240 250 266 280 284 280 274 266 262 267 273